Tampa, FL

5:03 PM EST on February 20, 2018 (GMT -0500)
Tampa International

Weather History for KTPA - February, 2013

Change the Weather History Date:

Monday, February 11, 2013

  Actual Average Record
Temperature  
Mean Temperature 71 °F 63 °F  
Max Temperature 78 °F 72 °F 84 °F (1959)
Min Temperature 63 °F 54 °F 32 °F (1947)
Degree Days  
Heating Degree Days 0 4  
Month to date heating degree days 37 51  
Since 1 July heating degree days 215 416  
Cooling Degree Days 6 2  
Month to date cooling degree days 24 22  
Year to date cooling degree days 149 72  
Growing Degree Days 20 (Base 50)    
Moisture  
Dew Point 62 °F    
Average Humidity 75    
Maximum Humidity 93    
Minimum Humidity 56    
Precipitation  
Precipitation 0.00 in 0.11 in 2.58 in (1963)
Month to date precipitation 0.05 1.12  
Year to date precipitation 0.68 3.35  
Sea Level Pressure  
Sea Level Pressure 30.15 in    
Wind  
Wind Speed 8 mph (South)    
Max Wind Speed 16 mph    
Max Gust Speed 22 mph    
Visibility 10 miles    
Events      
T = Trace of Precipitation, MM = Missing Value Source: NWS Daily Summary

Daily Weather History Graph

Daily Weather History Graph

Search for Another Location

Airport or City:

Trip Planner

Search our weather history database for the weather conditions in past years. The results will help you decide how hot, cold, wet, or windy it might be!

Date:

Astronomy

Feb. 11, 2013 Rise Set
Actual Time 7:10 AM EST 6:18 PM EST
Civil Twilight 6:46 AM EST 6:42 PM EST
Nautical Twilight 6:18 AM EST 7:10 PM EST
Astronomical Twilight 5:51 AM EST 7:37 PM EST
Moon 7:46 AM EST (2/11) 7:58 PM EST (2/11)
Length of Visible Light 11h 56m
Length of Day
11h 07m
Waxing Crescent, 3% of the Moon is Illuminated
Feb 11
Waxing Crescent
Feb 17
First Quarter
Feb 25
Full
Mar 4
Last Quarter
Mar 11
New

Hourly Weather History & Observations

Time (EST) Temp. Dew Point Humidity Pressure Visibility Wind Dir Wind Speed Gust Speed Precip Events Conditions
12:53 AM 66.0 °F 59.0 °F 78% 30.19 in 10.0 mi SE 5.8 mph - N/A   Clear
1:53 AM 64.9 °F 59.0 °F 81% 30.17 in 10.0 mi SSE 6.9 mph - N/A   Clear
2:53 AM 64.9 °F 59.0 °F 81% 30.16 in 10.0 mi SE 6.9 mph - N/A   Clear
3:53 AM 64.9 °F 59.0 °F 81% 30.15 in 10.0 mi SSE 6.9 mph - N/A   Clear
4:53 AM 64.9 °F 59.0 °F 81% 30.15 in 10.0 mi SSE 5.8 mph - N/A   Clear
5:53 AM 64.0 °F 60.1 °F 87% 30.17 in 10.0 mi SE 4.6 mph - N/A   Clear
6:53 AM 64.4 °F 59.0 °F 83% 30.19 in 10.0 mi SE 3.5 mph - N/A   Partly Cloudy
7:53 AM 64.0 °F 60.1 °F 87% 30.20 in 10.0 mi SE 6.9 mph - N/A   Partly Cloudy
8:53 AM 66.9 °F 61.0 °F 81% 30.21 in 10.0 mi SE 9.2 mph - N/A   Partly Cloudy
9:53 AM 69.1 °F 61.0 °F 75% 30.22 in 10.0 mi SE 10.4 mph 16.1 mph N/A   Mostly Cloudy
10:53 AM 75.0 °F 61.0 °F 62% 30.21 in 10.0 mi South 11.5 mph 16.1 mph N/A   Partly Cloudy
11:53 AM 77.0 °F 61.0 °F 58% 30.19 in 10.0 mi South 10.4 mph - N/A   Partly Cloudy
12:53 PM 77.0 °F 61.0 °F 58% 30.17 in 10.0 mi SSW 11.5 mph - N/A   Scattered Clouds
1:53 PM 77.0 °F 62.1 °F 60% 30.14 in 10.0 mi SSW 11.5 mph - N/A   Scattered Clouds
2:53 PM 78.1 °F 64.0 °F 62% 30.12 in 10.0 mi South 10.4 mph - N/A   Scattered Clouds
3:53 PM 77.0 °F 64.0 °F 64% 30.11 in 10.0 mi South 10.4 mph - N/A   Partly Cloudy
4:53 PM 75.0 °F 64.0 °F 69% 30.10 in 10.0 mi SSW 8.1 mph - N/A   Partly Cloudy
5:53 PM 73.0 °F 64.0 °F 73% 30.10 in 10.0 mi SSW 12.7 mph - N/A   Partly Cloudy
6:53 PM 71.1 °F 64.9 °F 81% 30.11 in 10.0 mi SSW 9.2 mph - N/A   Clear
7:53 PM 69.1 °F 64.9 °F 87% 30.12 in 10.0 mi SSW 4.6 mph - N/A   Clear
8:53 PM 69.1 °F 64.9 °F 87% 30.12 in 10.0 mi SSW 4.6 mph - N/A   Clear
9:53 PM 68.0 °F 64.9 °F 90% 30.13 in 10.0 mi South 5.8 mph - N/A   Clear
10:53 PM 66.9 °F 64.0 °F 90% 30.12 in 10.0 mi South 4.6 mph - N/A   Clear
11:53 PM 66.9 °F 64.9 °F 93% 30.12 in 10.0 mi South 5.8 mph - N/A   Clear